Theta_e
344 343 344 345 344 342 336 336 337 335 334 333 335 336 337 336 332 330 332 336 337 339 339 335 335 335 332 332 334 333 330 331 330 326 327 328 328 331 333 333 332 331 331 331 330 329 326 322 320 318 320 327 332 333 333 333 333 333 333 332 331 330
344 344 345 345 345 343 339 339 339 337 336 335 334 334 337 337 334 333 335 338 340 341 340 338 338 336 335 335 334 332 327 328 328 324 326 328 328 332 332 333 332 331 331 331 332 331 329 324 320 319 324 331 332 333 334 334 334 333 333 332 331 329
344 344 345 345 345 344 342 342 343 341 339 339 337 336 339 340 338 338 338 341 342 342 342 341 339 337 336 337 335 333 326 326 328 324 327 329 330 332 332 333 332 331 331 332 335 335 334 330 323 322 329 332 332 334 335 334 334 333 332 332 330 329
345 345 344 345 345 345 344 344 344 343 341 340 340 339 340 340 340 340 341 343 344 343 342 342 340 336 336 336 335 334 327 325 328 326 328 332 332 333 332 333 332 331 333 335 336 336 335 333 329 329 332 332 332 333 334 334 333 333 332 331 330 328
346 346 345 345 345 345 345 345 344 343 342 341 341 341 341 342 342 342 342 342 343 343 342 342 340 336 335 336 336 336 331 329 331 329 330 334 334 334 334 335 333 333 335 337 336 335 334 333 332 332 333 332 333 333 333 333 333 332 332 331 328 327
346 346 346 345 345 345 345 345 344 344 342 341 342 342 342 343 342 342 342 342 343 343 342 341 341 339 337 337 336 336 334 333 333 332 332 334 335 336 336 336 335 335 337 337 336 336 334 333 333 333 332 333 333 333 333 332 331 331 331 330 328 327
346 347 346 345 346 345 345 345 344 344 343 342 342 342 342 343 343 343 342 342 343 342 341 340 341 340 339 337 336 335 335 334 333 333 333 333 335 336 336 336 337 337 336 336 335 335 334 334 334 333 333 333 333 333 332 331 331 330 330 330 328 328
346 346 346 346 346 346 345 345 345 344 343 342 342 341 341 342 343 341 341 342 342 340 339 339 341 341 340 338 336 336 335 335 333 333 332 333 335 335 335 336 337 336 336 335 335 334 334 334 334 334 333 333 333 333 332 331 330 330 330 330 329 327
345 344 345 345 345 345 346 346 345 344 343 342 341 340 339 340 342 341 340 341 340 339 338 338 340 341 340 338 337 336 335 335 334 333 332 332 333 334 335 336 336 336 336 335 335 334 334 334 334 334 333 333 333 333 332 331 330 330 329 330 329 326
343 343 343 344 345 345 345 345 345 344 343 342 340 340 339 339 340 340 340 340 340 339 339 338 338 339 339 338 337 336 335 335 334 333 332 331 332 334 335 336 336 336 335 335 335 334 334 334 334 333 333 333 333 333 332 331 330 330 330 330 329 327
343 343 343 344 344 344 344 344 344 343 342 342 340 340 340 339 339 340 340 341 341 340 340 340 339 339 338 337 338 337 336 336 335 334 332 332 332 333 335 335 336 336 335 335 335 334 334 333 333 333 333 333 333 332 332 331 331 331 330 330 330 328
343 343 343 342 343 343 343 343 343 343 342 342 341 341 340 340 339 339 340 341 341 340 341 340 339 340 339 337 337 337 336 336 335 334 333 332 332 333 334 335 335 335 335 335 335 334 334 334 334 333 334 333 333 332 332 332 331 331 331 330 330 329
342 342 342 342 341 341 342 342 343 342 342 342 341 341 341 340 340 339 339 340 341 340 340 340 337 338 339 338 337 337 336 336 335 334 334 333 333 333 334 334 335 335 335 335 335 335 334 334 334 334 334 333 332 333 333 332 332 332 331 331 330 330
340 340 340 340 340 340 341 341 342 342 341 341 341 341 340 340 339 339 339 340 340 340 340 340 338 338 338 338 337 337 336 336 335 334 335 334 333 332 333 334 334 334 335 335 334 334 334 334 334 334 334 333 332 333 333 332 332 331 331 331 331 330
338 338 337 337 337 338 339 340 340 340 340 341 341 340 340 340 339 339 339 339 340 339 339 339 339 338 337 338 338 337 336 336 335 334 334 334 334 333 332 333 333 333 334 334 334 334 334 334 334 333 333 333 333 333 333 333 332 332 331 331 330 330
336 336 336 336 337 337 337 338 339 339 339 340 340 340 340 340 339 339 339 338 339 339 338 339 338 337 337 338 338 338 337 337 336 335 334 334 334 333 332 333 333 333 334 334 334 334 334 334 334 333 333 333 333 333 333 333 333 332 332 331 332 331
336 336 335 335 336 337 337 337 339 339 339 340 340 340 340 340 339 339 339 338 338 338 338 339 339 338 338 338 338 338 338 337 337 335 334 334 334 333 333 333 333 333 334 333 333 333 334 334 334 333 333 333 332 332 333 334 333 332 332 332 332 331
335 335 334 334 335 337 337 336 338 339 339 340 340 340 340 340 339 338 338 338 338 338 337 338 338 338 339 338 338 338 338 337 336 335 335 335 334 333 333 334 335 334 334 334 333 333 333 333 333 332 332 332 332 333 334 334 333 333 332 332 332 331
335 337 335 333 334 336 337 336 337 338 338 339 339 340 340 339 339 339 338 337 337 337 337 337 338 338 337 338 338 338 338 336 335 335 335 334 334 333 333 335 335 335 335 334 333 333 333 332 332 332 332 332 333 334 334 334 333 333 333 332 332 332
336 337 335 334 335 336 337 337 337 338 338 339 339 339 339 339 339 338 337 337 337 336 336 337 338 337 337 337 338 338 338 336 335 335 335 334 333 332 334 336 335 333 333 333 332 333 332 332 332 332 332 332 333 334 334 333 333 334 333 332 332 332
335 336 335 336 337 337 337 337 337 337 338 339 339 339 338 338 338 337 337 337 337 336 336 336 336 336 336 337 337 336 337 336 336 336 335 334 333 332 334 335 335 333 333 333 332 332 332 332 332 333 333 333 334 334 334 333 333 333 333 332 332 331
336 336 336 337 337 337 337 337 337 338 338 339 339 339 338 338 338 337 336 335 336 335 336 336 336 336 336 337 336 336 336 335 336 337 338 337 336 335 334 335 335 333 333 333 333 333 332 332 333 333 334 333 333 334 334 333 333 332 333 332 331 331
336 335 336 336 336 337 337 337 338 338 339 339 339 338 338 339 338 338 336 335 334 334 334 335 335 335 336 336 336 336 336 334 335 337 338 337 337 337 336 335 334 333 333 333 333 333 332 333 334 333 333 333 333 333 333 333 332 332 332 331 331 332
336 335 336 335 335 336 337 337 337 337 337 338 338 337 338 338 337 337 337 336 335 334 334 333 334 335 335 336 336 336 335 334 335 336 337 337 337 337 337 336 334 333 333 333 333 333 333 334 333 333 333 333 333 333 332 332 332 332 331 332 332 332
335 335 335 335 335 336 337 337 337 337 336 336 337 337 337 337 337 336 336 336 335 334 334 334 334 334 334 335 335 335 335 335 334 335 336 336 336 336 336 335 335 334 334 334 334 334 334 334 333 333 332 332 332 331 332 332 333 332 331 331 332 331
334 334 335 335 336 336 337 336 337 337 336 336 336 336 336 336 336 336 336 335 335 335 334 334 335 334 334 334 334 334 335 335 334 335 336 337 336 335 335 335 335 335 334 335 335 334 334 334 333 333 333 333 333 331 332 333 332 332 331 331 331 331
334 335 335 335 335 336 336 336 336 336 336 336 336 337 336 336 336 336 335 335 335 335 334 334 334 335 334 334 333 333 334 335 335 334 336 336 336 335 335 335 335 335 334 333 334 333 334 334 333 332 333 334 333 331 332 332 332 331 331 331 331 331
333 334 334 334 335 336 336 336 336 336 336 337 337 336 336 336 335 334 334 335 334 334 334 334 333 333 333 333 333 333 333 334 335 335 335 335 335 335 334 334 334 334 334 333 332 333 334 333 332 332 333 333 333 332 332 332 333 332 331 330 331 331
333 333 333 334 334 335 335 335 335 335 335 336 336 335 335 334 334 334 334 334 334 334 333 333 332 331 331 331 332 332 332 333 334 334 335 334 335 334 334 334 333 334 335 334 333 333 333 332 332 333 333 333 333 332 332 332 333 333 331 330 330 331
331 332 333 333 334 334 334 334 334 335 335 336 335 335 334 333 333 333 333 334 334 334 333 333 331 330 330 330 330 331 331 332 333 334 334 334 334 334 333 334 333 334 334 334 334 333 332 332 332 332 332 333 333 333 332 333 333 333 333 332 331 331
327 328 330 332 332 333 333 333 333 333 334 334 334 334 333 333 333 333 334 334 334 334 333 333 332 330 330 330 329 329 330 331 332 333 334 334 334 334 334 334 334 334 334 333 333 332 332 333 332 331 332 333 333 333 332 333 333 333 333 333 331 331
324 325 327 328 330 331 332 332 331 331 332 332 332 333 333 333 333 333 333 333 334 333 333 334 333 331 331 330 330 330 331 331 332 333 334 333 333 333 333 334 334 334 334 333 333 333 333 334 333 331 331 333 333 332 332 332 331 331 332 332 331 331
323 323 324 325 327 329 330 331 330 331 331 331 331 332 332 332 332 333 332 333 334 334 334 334 333 333 332 332 331 331 331 332 333 333 334 333 333 333 333 333 334 334 334 333 333 333 333 333 333 332 332 334 333 332 332 331 331 331 331 332 331 331
321 322 323 324 325 327 328 330 330 331 331 331 331 331 332 332 332 332 332 333 334 334 334 334 333 333 333 333 332 331 331 332 333 333 333 333 333 333 333 333 333 334 333 334 333 333 334 334 335 334 332 333 333 332 332 331 331 332 331 332 332 331
318 320 321 322 323 324 326 328 329 329 330 331 331 331 331 332 332 332 332 332 333 334 335 334 334 333 333 333 333 332 332 332 332 332 332 333 333 333 333 332 333 333 333 333 333 333 335 335 334 334 331 332 333 333 332 331 331 332 331 332 331 330
316 316 317 318 320 321 323 325 327 327 328 330 330 331 331 331 332 332 332 332 332 333 334 334 334 333 333 333 333 332 332 332 332 333 332 332 333 333 332 332 332 332 333 333 333 333 334 334 334 333 331 332 334 333 332 332 332 332 331 331 331 330
315 314 315 316 318 319 320 322 324 326 327 328 329 330 330 331 332 332 332 332 332 332 333 333 334 333 332 333 333 333 332 331 332 332 332 332 333 333 333 332 332 332 333 333 332 333 334 334 334 333 332 332 333 333 333 334 333 332 332 331 331 331
Wind_Speed
17 17 15 14 16 15 14 15 14 14 14 16 17 17 16 14 13 16 17 16 14 12 12 11 10 9 9 9 9 9 11 12 14 17 17 15 12 10 10 10 12 14 13 12 11 10 10 10 10 10 12 14 13 9 7 8 9 9 10 11 12 12
17 17 16 14 14 15 15 14 13 13 13 13 14 14 14 13 13 16 16 14 13 11 11 12 11 11 9 8 9 8 9 11 15 18 17 16 14 11 11 11 13 15 14 12 11 10 10 10 10 11 12 12 10 6 6 7 8 9 10 11 12 12
16 16 15 14 13 14 15 14 14 14 14 13 14 14 14 14 14 15 14 13 11 10 10 10 11 12 11 10 9 8 9 11 15 18 18 16 15 12 12 13 14 15 14 12 10 8 8 8 9 10 10 8 6 6 7 7 7 8 9 10 11 11
14 14 13 13 12 13 14 14 13 14 14 15 15 15 14 14 13 13 13 12 10 10 10 9 11 13 12 11 9 8 9 11 14 18 18 15 14 13 13 14 14 15 13 10 8 8 8 8 7 7 5 5 6 7 7 7 7 8 9 10 10 11
12 12 11 11 11 12 14 13 13 13 13 14 15 14 13 12 12 13 13 12 11 10 10 10 12 13 12 11 11 10 9 11 13 16 16 13 12 13 12 13 15 14 10 8 8 7 8 8 7 6 5 6 6 6 6 7 7 7 8 9 9 10
12 12 12 11 11 12 13 12 12 12 12 12 13 13 13 12 12 14 13 12 12 12 11 11 11 11 12 12 12 12 11 11 12 14 15 12 12 13 12 13 13 12 9 8 8 7 7 7 7 7 6 6 6 6 6 7 7 7 7 7 9 9
13 12 12 11 10 11 12 11 11 12 12 11 12 12 12 12 13 14 14 13 13 13 12 12 11 11 12 11 11 11 11 11 12 13 14 13 12 12 12 12 12 10 9 9 8 8 8 7 7 7 7 6 6 6 6 6 6 6 6 7 7 7
14 13 12 12 11 11 11 10 10 11 11 11 12 12 12 13 13 14 14 14 14 14 12 12 12 12 12 12 11 11 11 11 12 13 14 13 14 14 13 12 12 11 9 9 9 8 7 7 7 7 7 7 6 6 6 6 6 6 6 6 6 6
13 13 12 12 11 10 10 10 10 10 10 11 11 11 11 12 12 14 14 14 14 13 12 11 12 12 12 12 11 11 11 11 11 12 13 14 15 15 13 12 12 11 10 9 9 8 7 7 7 7 7 7 7 6 6 6 6 5 5 6 5 6
12 12 12 11 10 9 9 9 9 9 10 10 10 10 10 11 12 12 13 13 13 12 11 10 10 11 11 11 11 11 11 11 11 12 13 14 15 14 13 12 12 11 11 10 9 9 8 7 6 6 6 6 6 6 6 6 5 5 5 5 5 6
10 10 10 9 8 7 7 8 8 8 9 9 9 9 10 10 11 11 12 12 12 10 9 8 9 9 10 11 11 11 11 12 12 12 13 14 15 14 13 12 12 11 11 10 9 9 8 7 6 6 6 6 6 5 5 5 5 5 5 6 6 6
7 7 7 7 6 6 6 6 7 7 7 8 8 8 9 9 10 11 12 12 11 10 9 10 10 9 9 9 10 11 12 12 13 13 13 14 14 14 13 12 12 11 10 10 9 9 8 7 6 6 6 6 5 5 5 5 5 5 5 6 7 6
4 4 4 4 4 4 5 5 6 6 6 7 7 8 8 8 9 11 12 12 11 11 10 11 12 11 10 9 10 11 12 12 13 14 13 14 14 14 13 12 12 11 11 10 9 9 8 7 6 6 6 6 5 5 5 6 6 6 5 5 6 5
1 2 4 5 5 4 5 5 6 6 6 7 7 8 8 8 9 10 12 11 11 12 12 12 13 12 11 10 10 11 12 13 13 14 14 14 14 14 13 13 13 12 11 11 10 9 8 7 7 6 6 5 5 6 6 6 5 6 5 5 5 4
5 7 9 11 10 8 8 7 7 7 7 8 8 8 8 8 9 10 11 12 12 14 15 14 14 13 12 11 10 11 12 12 13 14 15 15 14 14 14 14 13 12 11 11 10 10 8 7 6 6 6 5 5 6 6 6 5 5 5 4 4 4
10 11 12 13 11 11 11 10 10 10 9 9 9 9 9 9 9 9 10 12 14 15 16 16 16 14 13 12 11 12 12 12 12 14 15 16 16 15 15 14 14 13 13 12 11 10 8 7 6 6 6 6 6 6 6 6 6 6 5 5 4 4
11 11 11 12 11 10 11 11 11 10 10 10 10 10 10 10 10 10 11 12 13 16 17 16 16 14 13 13 12 12 12 12 13 13 14 16 17 16 15 14 14 14 14 13 11 10 9 8 7 7 6 6 7 7 5 5 6 6 6 5 5 4
12 13 13 12 13 13 13 13 12 11 11 11 10 10 10 10 11 11 12 13 14 16 17 17 17 15 14 14 13 13 12 13 13 13 14 16 17 16 15 14 14 14 14 13 12 11 10 9 8 8 8 8 8 7 5 5 6 6 5 5 4 4
12 14 15 15 16 15 14 14 13 13 13 12 11 11 11 11 12 12 13 14 14 16 17 18 18 17 15 15 14 13 12 13 14 13 14 15 16 16 16 14 15 15 14 13 12 11 10 9 9 8 8 8 7 7 6 6 6 6 5 5 4 4
11 13 15 15 15 13 13 14 14 15 15 14 13 12 12 12 12 13 14 14 15 16 16 17 19 18 16 16 16 14 13 14 14 14 14 15 16 17 17 16 16 16 15 13 11 11 10 10 9 8 7 7 6 6 7 7 7 7 6 5 5 5
11 10 12 13 14 14 15 14 14 15 16 15 14 13 14 14 14 15 15 15 14 14 14 17 19 19 18 18 18 17 15 15 15 15 15 15 15 16 18 17 16 16 15 14 12 11 11 11 10 8 7 7 7 6 7 8 8 8 7 6 6 6
7 6 8 10 12 14 15 15 14 15 16 14 13 13 14 14 15 16 17 16 14 13 13 16 18 21 21 19 19 20 19 19 18 15 14 14 14 14 17 17 17 16 16 15 13 13 14 13 11 10 9 8 7 6 7 8 10 9 9 8 8 8
4 6 8 9 10 11 12 12 12 13 14 13 12 13 13 13 14 15 16 16 16 15 15 16 18 20 21 20 20 21 21 21 20 16 13 13 14 14 15 17 18 17 15 15 13 14 16 14 11 10 10 7 6 6 6 9 11 10 10 9 9 9
5 6 6 7 8 8 7 7 8 9 10 11 11 12 12 12 14 16 15 15 17 16 16 18 19 20 21 20 21 22 22 23 22 19 16 14 14 14 14 16 17 16 15 15 13 13 15 15 12 9 8 6 5 5 5 7 10 9 10 9 9 10
5 5 4 4 5 5 5 5 5 6 7 9 9 10 11 13 14 15 16 17 18 17 17 19 19 22 23 22 22 22 23 25 24 21 18 16 15 15 14 15 15 15 15 13 11 12 13 15 14 11 9 5 3 5 4 5 8 8 10 10 9 11
7 5 4 3 3 3 3 5 5 6 8 9 10 10 11 11 11 12 14 15 16 16 17 18 19 22 23 23 23 23 24 24 24 21 18 16 16 16 16 16 16 15 15 13 10 10 12 14 15 14 12 6 2 4 3 4 6 5 8 9 8 10
9 7 5 4 3 2 3 5 5 6 8 10 11 11 10 10 9 10 12 13 15 16 17 18 19 20 23 24 23 24 24 22 22 20 16 17 18 18 17 16 17 16 15 16 14 12 11 13 14 15 13 9 6 5 4 4 5 3 6 7 7 9
9 8 6 6 5 3 4 5 6 6 7 8 10 10 10 9 9 10 11 13 15 15 16 18 20 21 24 24 22 23 24 23 22 20 17 18 20 19 17 16 18 17 16 17 17 15 14 13 14 15 15 13 10 8 7 6 6 4 4 5 7 9
10 9 8 7 6 4 4 5 6 7 8 7 8 9 8 8 8 9 11 12 12 13 15 18 21 21 22 23 23 22 22 23 23 21 19 20 20 19 18 18 19 18 17 17 18 20 19 17 17 16 15 15 13 11 10 9 7 6 6 5 6 8
13 12 11 9 7 5 5 6 7 8 8 8 8 9 9 9 9 9 11 11 10 11 13 16 18 18 18 20 22 21 20 19 19 21 22 20 18 18 19 19 20 18 18 19 20 23 23 20 19 18 16 15 14 13 11 10 9 8 8 7 5 7
15 14 12 11 10 8 6 6 8 10 10 9 8 8 9 11 11 10 11 11 10 10 10 12 14 15 15 17 19 19 19 16 15 19 21 19 19 19 17 17 18 17 18 22 22 22 21 20 18 18 17 15 14 13 12 11 10 10 9 7 6 6
16 15 13 12 10 9 8 7 8 9 9 9 8 8 9 11 12 11 11 11 9 9 9 10 11 12 14 16 17 17 17 15 16 20 23 21 20 19 17 16 17 17 18 21 22 20 20 20 18 18 17 14 14 14 13 12 10 9 9 8 7 6
17 16 14 12 11 9 8 8 8 7 7 7 7 8 10 11 12 12 11 10 8 8 10 11 12 12 13 14 15 16 17 17 19 23 24 22 20 21 21 18 16 18 18 20 23 22 20 19 18 19 17 15 15 14 14 12 10 9 9 9 9 7
17 16 15 13 12 10 9 9 8 7 6 7 8 9 10 11 11 11 11 9 8 9 10 11 13 14 12 11 13 16 17 17 21 24 23 21 21 21 21 19 17 19 19 19 22 22 20 18 17 18 18 16 16 15 15 14 11 10 10 10 9 8
16 15 15 14 12 12 10 9 9 8 7 7 8 10 10 10 11 11 10 10 9 10 10 10 12 13 12 11 12 14 16 18 18 19 21 22 22 22 21 21 21 20 19 19 20 20 19 19 18 19 19 16 15 15 15 14 13 13 12 11 10 10
16 16 16 14 12 12 11 10 9 9 8 9 10 11 10 10 11 11 11 10 10 11 11 11 11 12 12 12 12 12 15 18 17 16 20 23 23 23 22 21 21 20 19 20 20 19 19 19 18 19 19 16 15 15 15 15 15 14 13 12 11 11
17 18 17 15 13 12 11 10 10 10 10 11 12 12 12 12 12 12 11 10 11 12 12 11 11 11 12 13 14 13 14 18 20 19 20 21 20 21 20 20 20 18 17 19 20 20 20 19 19 19 19 18 17 15 14 15 15 15 13 12 12 12
Wind_Direction
164 160 156 155 157 158 157 154 155 155 157 162 165 166 167 160 153 159 160 160 160 157 157 159 159 159 162 161 162 173 176 168 164 160 158 158 157 155 155 152 146 141 138 130 114 101 93 93 96 104 109 96 78 78 99 100 98 98 98 101 103 108
167 161 157 157 156 158 157 154 155 155 155 161 165 165 165 160 156 162 166 165 165 165 165 162 160 158 156 163 168 172 171 166 164 162 159 157 157 157 161 159 151 145 142 127 110 103 96 91 95 104 97 79 77 98 102 94 96 96 98 101 107 116
169 163 159 160 160 160 159 159 162 162 162 164 165 167 169 169 166 169 171 170 172 174 173 167 160 158 158 162 166 166 164 164 164 163 160 157 156 158 163 159 154 149 139 120 112 119 114 104 103 98 81 72 93 105 97 94 93 90 96 100 110 123
167 166 164 163 164 165 164 165 167 168 171 171 170 172 175 174 173 174 175 176 181 178 175 173 166 166 167 162 161 162 162 163 165 165 160 155 155 159 161 158 155 149 139 129 132 134 124 122 119 106 88 92 106 100 94 88 86 90 94 100 114 122
166 169 170 169 172 173 170 170 172 174 177 177 173 174 176 177 178 179 182 185 185 180 179 177 172 172 172 167 162 159 160 162 166 165 160 159 159 158 158 159 158 156 155 153 147 136 128 129 127 123 115 111 108 101 94 85 85 89 91 99 113 119
171 174 178 179 182 177 174 176 177 177 178 179 175 174 177 180 183 183 187 190 187 186 182 179 179 177 177 177 169 163 163 163 168 169 168 174 171 163 163 164 166 170 170 158 146 138 135 131 129 128 122 118 114 106 98 92 90 88 91 99 112 124
176 179 182 185 184 181 182 181 181 179 178 180 179 180 182 183 186 187 190 191 191 191 185 180 184 184 183 182 175 172 169 166 172 174 176 182 181 176 173 173 177 177 168 157 150 144 138 134 131 129 125 122 114 109 105 100 100 97 98 104 118 135
180 183 184 186 187 185 186 183 181 181 182 184 186 189 190 189 191 195 196 195 197 197 193 189 187 189 189 186 181 177 174 173 176 177 180 186 187 185 181 181 182 174 167 160 154 150 144 140 136 133 129 124 115 113 111 108 110 106 107 113 121 139
187 190 189 188 190 188 185 184 184 186 189 191 194 198 198 197 199 202 203 202 203 201 202 199 193 192 194 193 186 179 180 181 178 177 183 189 191 189 185 185 182 174 170 165 159 156 152 147 143 140 135 128 120 116 116 119 120 113 116 122 126 146
194 196 195 192 190 187 184 184 189 193 195 196 202 205 203 205 206 207 207 207 209 207 206 206 201 198 198 198 192 186 185 184 181 177 182 190 193 193 189 184 182 178 174 170 164 159 158 156 151 145 141 136 129 125 127 129 128 126 126 127 131 146
200 200 196 198 196 189 185 187 194 196 198 202 206 207 208 211 212 212 210 208 210 211 210 211 209 204 204 203 197 195 191 190 188 182 182 188 194 197 193 187 184 182 178 174 167 162 163 163 159 153 147 142 137 135 137 139 139 135 132 133 137 142
209 206 198 204 204 199 199 198 200 201 205 209 207 210 214 216 218 219 214 209 207 210 213 213 212 210 212 209 204 203 199 197 195 190 185 185 193 199 196 191 188 186 182 176 170 167 166 166 165 159 152 147 146 146 145 148 147 140 136 136 139 145
219 220 218 222 221 220 218 210 208 212 215 211 212 217 220 221 226 225 220 213 208 212 217 216 215 214 217 216 212 210 206 206 202 197 190 183 190 197 196 195 191 188 185 180 176 171 169 169 168 163 156 154 157 156 154 159 153 146 149 146 144 154
215 230 234 225 222 233 236 233 224 223 223 216 218 223 224 227 231 231 227 219 211 213 218 218 218 216 220 220 216 215 211 211 209 202 194 186 189 195 198 198 194 192 188 186 183 179 178 174 172 170 165 168 170 167 165 166 157 152 159 156 154 159
197 210 219 212 205 210 217 225 229 230 230 223 224 225 226 227 230 234 232 226 219 215 217 221 221 218 219 220 218 218 215 214 211 206 201 195 193 195 198 201 199 197 193 192 190 185 185 179 179 179 173 178 181 181 178 167 163 166 167 165 168 167
196 200 211 210 204 207 210 212 215 219 227 228 226 227 228 226 226 231 231 230 227 222 220 222 224 221 219 219 218 219 218 215 213 210 207 203 200 199 198 200 201 199 195 195 191 187 188 184 188 189 182 185 190 197 188 171 173 176 174 178 178 169
196 200 208 209 206 212 217 218 218 216 224 231 230 231 230 226 226 229 229 230 230 230 227 224 226 225 221 221 220 220 218 214 213 214 211 206 205 204 200 197 198 200 198 196 191 187 188 191 195 196 195 195 196 203 197 184 185 181 184 188 179 172
197 203 202 203 209 215 218 220 222 222 225 231 235 237 233 229 229 228 229 229 228 231 231 227 226 224 223 224 224 223 220 214 211 212 213 210 208 206 200 196 194 195 195 196 193 190 191 196 197 196 201 203 201 203 199 193 196 197 196 186 172 172
200 201 198 202 210 211 212 216 220 225 228 227 230 234 233 233 233 231 231 231 228 229 232 230 226 222 224 228 227 226 223 214 208 207 209 209 208 204 198 195 194 192 193 197 196 194 195 195 193 194 200 201 200 204 202 199 203 211 205 181 167 177
197 197 197 199 204 203 206 213 219 225 227 225 223 227 232 236 237 236 235 232 231 233 235 234 229 222 222 230 229 225 223 215 207 206 206 204 204 202 196 192 193 192 192 197 197 195 194 189 185 184 191 196 197 202 205 207 208 211 206 184 177 189
195 201 199 195 194 195 200 206 213 222 226 225 221 223 232 236 236 238 236 233 234 236 241 242 239 230 225 229 231 227 222 215 210 209 207 204 202 201 198 191 187 190 192 195 194 192 189 183 178 175 183 192 196 207 208 213 214 209 204 187 187 202
207 229 232 218 206 200 199 199 204 216 224 226 224 226 233 236 236 240 240 238 238 240 243 242 242 240 233 229 230 231 226 217 214 212 207 203 198 198 199 191 185 189 193 194 191 190 186 183 184 186 192 191 193 207 212 219 219 208 202 191 190 203
252 266 260 249 232 217 210 206 208 216 225 230 233 236 241 245 246 250 252 248 246 245 243 240 239 240 239 232 228 230 229 222 217 213 204 197 194 193 194 191 191 193 192 191 192 191 190 193 198 193 196 202 197 200 206 217 218 208 205 198 194 203
313 309 284 263 249 238 230 227 229 231 236 241 243 247 252 256 255 257 259 257 256 253 251 250 244 239 240 239 233 231 231 226 218 211 205 197 193 191 191 191 193 194 191 190 192 190 191 202 208 195 199 208 193 203 213 205 202 199 199 195 195 204
351 343 316 283 261 253 250 249 248 246 250 252 255 257 257 257 257 258 258 260 261 256 251 252 248 243 241 241 240 235 231 229 220 211 206 203 198 193 193 193 192 192 191 193 193 187 188 203 210 206 218 228 180 210 231 184 178 185 190 192 197 202
16 5 342 314 289 280 279 273 262 252 250 252 254 253 255 261 264 261 258 259 260 252 248 253 251 247 243 241 242 237 232 230 223 215 207 202 199 196 196 196 196 194 193 196 193 188 190 199 207 213 228 250 219 228 251 182 176 181 184 192 200 199
20 14 5 349 332 330 312 298 286 269 257 256 259 263 271 280 277 270 264 260 260 256 254 256 253 250 248 246 244 237 231 229 224 217 211 206 203 203 202 196 198 197 195 197 192 193 199 195 201 212 223 234 221 235 260 213 205 198 179 191 200 197
18 12 7 2 355 346 324 313 304 292 280 273 275 282 285 281 273 272 269 263 266 268 263 262 260 258 256 250 244 240 235 230 226 220 213 214 210 208 205 198 198 197 197 200 195 198 205 197 203 210 212 219 220 228 236 219 227 238 205 195 193 196
17 12 8 7 8 354 324 315 311 302 294 290 288 292 290 278 270 268 268 264 266 270 269 270 268 263 257 248 241 243 237 225 220 215 211 214 213 212 211 206 203 200 196 198 199 206 208 204 210 210 203 208 213 217 218 213 223 230 229 223 194 188
17 16 13 11 8 354 328 317 317 312 306 300 291 293 296 287 277 268 269 269 264 265 268 269 268 261 252 245 240 242 238 223 208 206 211 213 212 214 216 214 211 205 198 197 202 212 213 209 212 211 202 200 204 208 209 208 212 213 224 237 222 192
18 17 16 13 8 358 348 331 323 318 315 312 300 295 295 291 287 278 272 270 265 266 263 258 257 252 243 240 239 238 237 229 208 205 211 211 210 213 216 216 215 208 201 201 205 213 216 214 213 213 207 201 203 206 207 209 209 209 214 225 226 202
16 14 13 12 8 0 353 342 331 323 316 311 298 289 286 285 286 281 273 267 267 271 262 248 242 238 229 226 231 229 223 216 204 207 214 215 213 216 220 220 217 212 205 204 207 212 217 216 215 218 213 204 206 208 209 213 212 210 215 218 218 209
15 12 9 7 7 2 350 339 330 324 316 305 291 283 282 280 281 281 276 266 260 261 257 247 239 238 229 219 222 223 217 208 201 207 214 212 211 217 223 223 219 216 210 205 207 211 218 217 214 218 214 205 207 210 210 212 211 210 215 217 216 211
13 12 10 6 4 2 356 345 333 324 315 303 291 281 277 278 276 276 274 265 254 251 249 243 241 245 242 229 226 225 219 210 207 211 209 203 204 214 222 225 222 219 216 213 210 211 218 218 213 217 215 205 204 209 211 209 207 209 212 214 214 207
7 8 10 9 5 1 358 351 344 337 323 304 292 283 276 275 272 268 266 261 254 250 249 246 243 247 248 243 237 229 219 211 210 211 205 200 204 212 220 224 223 222 221 219 213 211 218 219 215 218 218 211 205 208 211 209 207 211 214 212 212 206
2 3 5 6 4 359 356 352 347 341 328 310 298 291 284 280 277 271 266 260 255 252 252 252 250 248 248 244 239 231 222 215 211 207 205 205 207 212 218 221 221 219 217 217 214 213 219 218 216 219 217 210 208 209 210 210 210 212 215 214 212 207
0 2 3 2 359 355 352 350 347 340 330 318 308 302 297 292 288 282 274 267 262 256 253 254 253 249 245 241 236 231 225 221 219 216 212 210 208 210 215 219 220 217 213 213 212 213 218 216 217 222 218 210 209 211 211 211 211 212 215 217 214 207